Regional Weather Roundup
Issued by NWS Grand Forks, ND

Home | Current Version | Previous Version | Text Only | Print | Product List | Glossary Off
Versions: 1 2 3 4 5 6 7 8 9 10 11 12 13 14 15 16 17 18 19 20 21 22 23 24 25 26 27 28 29 30 31 32 33 34 35 36 37 38 39 40 41 42 43 44 45 46 47 48 49 50

763
ASUS43 KFGF 130610
RWRFGF
PRAIRIE TO PINES  WEATHER ROUNDUP
NATIONAL WEATHER SERVICE EASTERN NORTH DAKOTA/GRAND FORKS ND
1200 AM CST SAT FEB 13 2016

 **SATELLITE DATA USED TO AUGMENT SKY COVER AT AUTOMATED STATIONS**
 *****  WEATHER ACROSS EASTERN NORTH DAKOTA  *****

CITY           SKY/WX    TMP DP  RH WIND       PRES   REMARKS
GRAND FORKS    CLOUDY    -7 -14  71 W3        30.67S
6HR MIN TEMP:  -8; 6HR MAX TEMP:  -1;

GRAND FRKS AFB CLOUDY   -10 -16  73 W2        30.66S
DEVILS LAKE    CLOUDY   -15 -20  78 SE3       30.58S
6HR MIN TEMP: -18; 6HR MAX TEMP:  -8;

FARGO          CLOUDY    -7 -14  71 CALM      30.67F
WAHPETON ARPT  CLOUDY    -8 -15  71 CALM      30.67S
$$

 ***** WEATHER ACROSS CENTRAL AND WESTERN NORTH DAKOTA  *****

CITY           SKY/WX    TMP DP  RH WIND       PRES   REMARKS
BISMARCK       CLOUDY     5  -5  63 SE9       30.51F WCI  -9
6HR MIN TEMP:   1; 6HR MAX TEMP:   8;

MINOT          CLOUDY     5  -4  66 SE8       30.46F WCI  -8
6HR MIN TEMP:   1; 6HR MAX TEMP:   5;

JAMESTOWN      CLOUDY    -7 -12  79 CALM      30.58F
6HR MIN TEMP:  -9; 6HR MAX TEMP:  -3;

MINOT AFB      CLOUDY     5  -2  73 SE13      30.46F WCI -12
GARRISON         N/A      5  -2  72 SE13      30.45F WCI -12
WILLISTON      LGT SNOW  12   6  77 SE10G20   30.31F WCI  -1
6HR MIN TEMP:  11; 6HR MAX TEMP:  13; 6HR PCP:  0.02;

DICKINSON      CLOUDY    10   4  76 SE22      30.27F WCI -10
6HR MIN TEMP:  10; 6HR MAX TEMP:  10; 6HR PCP: TRACE;

HETTINGER      CLOUDY    13   8  81 SE16      30.31F WCI  -3
6HR MIN TEMP:  11; 6HR MAX TEMP:  13; 6HR PCP: TRACE;

$$

 *****  OTHER AIRPORT OBSERVATIONS IN OUR AREA  *****

CITY           SKY/WX    TMP DP  RH WIND       PRES   REMARKS
WALHALLA       FAIR     -11 -17  77 SW3       30.64S
GRAFTON AIRPOR FAIR      -8 -13  77 S3        30.68S
VALLEY CITY AR FAIR     -13 -18  77 CALM      30.62S
CANDO          NOT AVBL
CAVALIER APRT  FAIR      -9 -13  84 SW3       30.65S
GWINNER        FAIR      -8 -13  77 N5        30.62F WCI -19
SHEYENNE NWR     N/A    -18 -26  68 CALM      29.95S
ROLLA          FAIR     -11 -17  77 S7        30.51F WCI -26
 ***** THE ABOVE OBSERVATIONS ARE NON NWS ARE NOT QUALITY
       CONTROLLED AND MAY MIS-REPORT RAIN FOR SNOW...
$$

  *****  WEATHER ACROSS NORTHERN MINNESOTA  *****

CITY           SKY/WX    TMP DP  RH WIND       PRES   REMARKS
FLAG ISLAND    CLOUDY   -17 -24  70 NW7       30.58S WCI -33
WARROAD        CLOUDY   -17 -22  76 W7        30.61R WCI -33
ROSEAU         PTCLDY   -13 -18  77 W7        30.62S WCI -29
HALLOCK        CLOUDY   -13 -18  77 CALM      30.65S
THF RVR FALLS  CLOUDY   -11 -24  53 CALM      30.63R
6HR MIN TEMP: -11; 6HR MAX TEMP:  -8;

BAUDETTE       CLOUDY   -17 -24  70 NW9       30.57R WCI -36
6HR MIN TEMP: -18; 6HR MAX TEMP:  -6;

WASKISH        CLOUDY   -15 -20  76 W7        30.58S WCI -31
CROOKSTON      CLOUDY    -9 -15  77 CALM      30.67F
STEPHEN NDAWN    N/A    -13 -17  84 CALM        N/A
GREENBUSH NDAW   N/A    -17 -22  76 CALM        N/A
$$
  *****  WEATHER ACROSS CENTRAL AND WEST MINNESOTA  *****

CITY           SKY/WX    TMP DP  RH WIND       PRES   REMARKS
FOSSTON          N/A    -24 -29  76 CALM      30.61S
BEMIDJI        CLOUDY   -18 -23  80 W5        30.57S WCI -31
PARK RAPIDS    CLOUDY   -17 -22  78 NW7       30.56S WCI -33
6HR MIN TEMP: -17; 6HR MAX TEMP:  -4;

ELBOW LAKE     FAIR      -7 -10  84 NW5       30.63F WCI -18
6HR MIN TEMP:  -7; 6HR MAX TEMP:  -1;

WADENA         CLOUDY   -13 -18  77 W5        30.59R WCI -25
DETROIT LAKES  CLOUDY    -9 -15  77 NW5       30.60S WCI -21
MOORHEAD       CLOUDY    -8 -13  77 CALM      30.67F
FERGUS FALLS   CLOUDY    -9 -15  77 CALM      30.68F
MORRIS MN      CLOUDY    -8 -11  84 NW5       30.63F WCI -19
STAPLES        CLOUDY   -15 -20  76 W5        30.60R WCI -27
$$
  *****  WEATHER ELSEWHERE ACROSS MINNESOTA  *****

CITY           SKY/WX    TMP DP  RH WIND       PRES   REMARKS
DULUTH         CLOUDY    -9 -19  61 NW9       30.50R WCI -26
6HR MIN TEMP:  -9; 6HR MAX TEMP:  -1;

INTRNTL FALLS  CLOUDY   -15 -21  74 W7        30.54R WCI -31
6HR MIN TEMP: -15; 6HR MAX TEMP:  -7;

ELY            CLOUDY   -13 -18  77 NW5       30.47S WCI -25
CLOQUET        CLOUDY    -9 -18  64 W7        30.53R WCI -24
WHEATON        CLOUDY    -8 -11  84 CALM      30.68S
BRAINERD       CLOUDY    -9 -17  68 NW5       30.59R WCI -20
6HR MIN TEMP:  -9; 6HR MAX TEMP:   2;

HIBBING        CLOUDY   -14 -22  67 W8        30.52R WCI -31
6HR MIN TEMP: -15; 6HR MAX TEMP:  -5;

ALEXANDRIA     CLOUDY    -9 -16  71 NW7       30.60R WCI -24
6HR MIN TEMP:  -9; 6HR MAX TEMP:  -1;

SAINT CLOUD    CLOUDY    -6 -15  65 NW9       30.61R WCI -23
6HR MIN TEMP:  -6; 6HR MAX TEMP:   4;

MINNEAPOLIS    CLOUDY     0 -12  57 NW12      30.62R WCI -17
6HR MIN TEMP:   0; 6HR MAX TEMP:   7;

$$

  *****  WEATHER ACROSS SOUTH DAKOTA  *****

CITY           SKY/WX    TMP DP  RH WIND       PRES   REMARKS
SIOUX FALLS    CLOUDY    -2  -7  79 NW3       30.62R
6HR MIN TEMP:  -3; 6HR MAX TEMP:   6;

BROOKINGS      CLOUDY    -6 -12  75 N3        30.57S
WATERTOWN      CLOUDY    -6 -14  68 CALM      30.56S
6HR MIN TEMP: -11; 6HR MAX TEMP:  -2;

HURON          CLOUDY     3  -4  72 E5        30.63S WCI  -6
6HR MIN TEMP:   1; 6HR MAX TEMP:   6;

SISSETON         N/A     -9 -14  78 NW3       30.64S
ABERDEEN       CLOUDY     0  -9  65 E3        30.62F
6HR MIN TEMP:  -1; 6HR MAX TEMP:   4;

MITCHELL       CLOUDY     6  -2  69 E7        30.64S WCI  -6
PIERRE         CLOUDY    13   5  70 SE14      30.49F WCI  -2
6HR MIN TEMP:  13; 6HR MAX TEMP:  17;

MOBRIDGE       CLOUDY     8   2  76 SE14      30.47F WCI  -8
RAPID CITY     CLOUDY    25  22  88 SE16      30.22F WCI  12
6HR MIN TEMP:  22; 6HR MAX TEMP:  25;

$$

  *****  SOME WEATHER IN NEARBY STATES *****

CITY           SKY/WX    TMP DP  RH WIND       PRES   REMARKS
GLASGOW MT     CLOUDY    18  13  80 E22       30.11F WCI   1
6HR MIN TEMP:  16; 6HR MAX TEMP:  18; 6HR PCP:  0.06;

GREAT FALLS MT CLEAR     40  31  70 SW12      29.96F
6HR MIN TEMP:  36; 6HR MAX TEMP:  56;

CHEYENNE WY    CLOUDY    30  30 100 SW18      30.18F FOG     WCI  18
6HR MIN TEMP:  30; 6HR MAX TEMP:  45;

SCOTTSBLUFF NE CLOUDY    33  30  88 SE10      30.24F WCI  25
6HR MIN TEMP:  32; 6HR MAX TEMP:  35;

OMAHA NE       CLOUDY    13   1  59 N9        30.66R WCI   1
6HR MIN TEMP:  13; 6HR MAX TEMP:  16;

DES MOINES IA  CLEAR      5  -3  69 N7        30.64R WCI  -7
6HR MIN TEMP:   5; 6HR MAX TEMP:  13;

DAVENPORT IA   CLEAR      7  -4  60 N12       30.56R WCI  -8
6HR MIN TEMP:   7; 6HR MAX TEMP:  13;

CHICAGO IL     PTCLDY     7  -8  50 NW18      30.47R WCI -12
6HR MIN TEMP:   7; 6HR MAX TEMP:  17;

EAU CLAIRE WI  CLOUDY    -1 -17  46 NW7       30.54R WCI -14
6HR MIN TEMP:  -1; 6HR MAX TEMP:   4;

LA CROSSE WI   CLOUDY    -1 -13  56 NW7       30.58R WCI -14
6HR MIN TEMP:  -1; 6HR MAX TEMP:   8;

$$

  *****  SOME NATIONAL WEATHER *****

CITY           SKY/WX    TMP DP  RH WIND       PRES   REMARKS
LA GUARDIA NY  CLOUDY    23   9  55 W15       29.91F WCI  10
6HR MIN TEMP:  23; 6HR MAX TEMP:  25; 6HR PCP: TRACE;

RALEIGH NC     MOCLDY    31  23  72 CALM      30.03S
6HR MIN TEMP:  29; 6HR MAX TEMP:  31;

ATLANTA GA     PTCLDY    39  27  62 NW13      30.19S
6HR MIN TEMP:  39; 6HR MAX TEMP:  54;

NEW ORLEANS LA PTCLDY    59  45  59 N9        30.29S
6HR MIN TEMP:  58; 6HR MAX TEMP:  69;

OKLAHOMA CITY  PTCLDY    40  27  59 NE10      30.46R
6HR MIN TEMP:  40; 6HR MAX TEMP:  53;

ALBUQUERQUE NM CLOUDY    46  19  34 CALM      30.33R
6HR MIN TEMP:  46; 6HR MAX TEMP:  66;

SALT LAKE CITY CLOUDY    29  27  92 W6        30.33S FOG     WCI  23
6HR MIN TEMP:  29; 6HR MAX TEMP:  31;

LOS ANGELES CA CLEAR     60  55  83 SW5       30.08R
6HR MIN TEMP:  59; 6HR C1F1C2F2C3F3C4F4C5F5C6F6C7F7C8F8C9F9CaFaCbFbCcFcCd!



USA.gov is the U.S. government's official web portal to all federal, state and local government web resources and services.